Latest Weather Observations for Adelaide

IDS60801

Issued at 3:01 pm CST Tuesday 1 September 2015 (issued every 30 minutes, with the page automatically refreshed every 10 minutes)

About weather observations | Map of weather stations | Latest weather observations for SA | Other Formats
Station Details ID: 023090 Name: KENT TOWN Lat: -34.92 Lon: 138.62 Height: 48.0 m
Data from the previous 72 hours. | See also: Recent months at Adelaide
Date/Time
CST
Temp
°C
App
Temp
°C
Dew
Point
Rel
Hum
%
Delta-T
°C
Wind Press
QNH
hPa
Press
MSL
hPa
Rain
since 9 am
mm
Dir
 
Spd
km/h
Gust
km/h
Spd
kts
Gust
kts
01/03:00pm 18.7 13.4 1.8 32 7.7 N 19 28 10 15 1009.5 1009.6 0.0
01/02:30pm 18.5 14.3 1.7 32 7.6 NNW 13 22 7 12 1009.8 - 0.0
01/02:00pm 18.6 14.6 2.6 34 7.4 NNW 13 26 7 14 1010.2 - 0.0
01/01:30pm 18.9 15.5 4.0 37 7.1 N 11 19 6 10 1010.2 - 0.0
01/01:00pm 19.2 14.6 3.9 36 7.3 N 17 26 9 14 1010.5 - 0.0
01/12:30pm 19.7 15.3 2.8 32 7.9 N 15 24 8 13 1011.0 - 0.0
01/12:00pm 19.3 15.0 3.1 34 7.6 N 15 30 8 16 1011.5 1011.6 0.0
01/11:30am 17.9 13.9 3.0 37 6.9 N 13 24 7 13 1012.1 - 0.0
01/11:00am 18.1 15.0 3.6 38 6.8 N 9 17 5 9 1012.4 - 0.0
01/10:30am 17.7 15.0 3.9 40 6.5 NE 7 15 4 8 1013.0 - 0.0
01/10:00am 17.2 14.1 3.7 40 6.3 NNE 9 15 5 8 1013.3 - 0.0
01/09:30am 16.9 14.2 3.5 41 6.2 NE 7 13 4 7 1013.4 - 0.0
01/09:00am 16.6 13.0 3.1 40 6.2 NNE 11 17 6 9 1013.6 1013.6 0.4
01/08:30am 15.5 13.4 6.0 53 4.6 ENE 6 11 3 6 1013.6 - 0.4
01/08:00am 13.8 11.4 6.8 62 3.4 ENE 9 13 5 7 1013.5 - 0.4
01/07:30am 12.6 10.7 7.5 71 2.5 E 7 9 4 5 1013.9 - 0.4
01/07:00am 12.7 10.4 5.7 62 3.3 NE 7 13 4 7 1013.8 - 0.0
01/06:30am 12.1 11.3 6.4 68 2.7 CALM 0 0 0 0 1013.3 - 0.0
01/06:00am 12.5 11.6 5.9 64 3.1 CALM 0 6 0 3 1013.0 1013.0 0.0
01/05:30am 12.9 11.9 5.7 61 3.4 CALM 0 4 0 2 1013.1 - 0.0
01/05:00am 13.4 11.1 2.8 48 4.7 NE 4 9 2 5 1013.0 - 0.0
01/04:30am 13.5 11.2 2.9 48 4.7 NE 4 9 2 5 1013.3 - 0.0
01/04:00am 13.2 10.7 3.7 52 4.3 NNE 6 9 3 5 1013.4 - 0.0
01/03:30am 13.7 10.9 2.9 48 4.8 N 7 11 4 6 1013.7 - 0.0
01/03:00am 12.5 9.7 3.3 53 4.1 ENE 7 13 4 7 1013.8 1013.8 0.0
01/02:30am 9.5 7.9 4.6 71 2.2 ENE 2 7 1 4 1014.4 - 0.0
01/02:00am 10.0 8.8 4.6 69 2.4 CALM 0 0 0 0 1014.9 - 0.0
01/01:30am 10.6 9.4 4.6 66 2.7 CALM 0 4 0 2 1015.0 - 0.0
01/01:00am 11.0 10.0 5.6 69 2.5 CALM 0 0 0 0 1015.0 - 0.0
01/12:30am 11.2 10.1 5.1 66 2.8 CALM 0 0 0 0 1015.4 - 0.0
01/12:00am 11.2 8.8 4.3 62 3.1 NNE 6 7 3 4 1015.7 1015.8 0.0
 
Date/Time
CST
Temp
°C
App
Temp
°C
Dew
Point
Rel
Hum
%
Delta-T
°C
Wind Press
QNH
hPa
Press
MSL
hPa
Rain
since 9 am
mm
Dir
 
Spd
km/h
Gust
km/h
Spd
kts
Gust
kts
31/11:30pm 10.7 9.5 4.7 66 2.7 CALM 0 0 0 0 1015.8 - 0.0
31/11:00pm 10.7 9.5 4.7 66 2.7 CALM 0 6 0 3 1016.2 - 0.0
31/10:30pm 11.1 8.8 4.7 64 2.9 NNE 6 7 3 4 1016.7 - 0.0
31/10:00pm 11.3 10.2 4.9 65 2.9 CALM 0 0 0 0 1016.8 - 0.0
31/09:30pm 11.1 10.0 5.2 67 2.7 CALM 0 4 0 2 1016.9 - 0.0
31/09:00pm 11.1 10.1 5.5 68 2.6 CALM 0 6 0 3 1017.2 1017.3 0.0
31/08:30pm 11.4 10.3 5.1 65 2.9 CALM 0 0 0 0 1017.5 - 0.0
31/08:00pm 11.9 10.9 5.4 64 3.0 CALM 0 0 0 0 1017.5 - 0.0
31/07:30pm 12.9 11.9 5.6 61 3.4 CALM 0 0 0 0 1017.3 - 0.0
31/07:00pm 14.0 12.2 5.3 55 4.1 SE 4 9 2 5 1017.1 - 0.0
31/06:30pm 15.1 13.7 3.8 46 5.2 CALM 0 6 0 3 1016.8 - 0.0
31/06:00pm 16.3 14.8 3.2 41 6.0 CALM 0 0 0 0 1016.7 1016.8 0.0
31/05:30pm 17.7 14.7 2.0 35 7.1 N 7 11 4 6 1016.9 - 0.0
31/05:00pm 18.4 15.6 2.2 34 7.4 NNW 6 13 3 7 1017.1 - 0.0
31/04:30pm 18.9 15.9 1.7 31 7.8 W 7 17 4 9 1017.3 - 0.0
31/04:00pm 19.2 15.5 2.5 33 7.7 WSW 11 17 6 9 1017.4 - 0.0
31/03:30pm 19.2 15.7 1.5 30 8.0 SW 9 17 5 9 1017.5 - 0.0
31/03:00pm 19.2 16.0 0.8 29 8.2 NNW 7 13 4 7 1017.8 1017.9 0.0
31/02:30pm 19.6 16.3 2.2 31 8.0 WSW 9 13 5 7 1018.0 - 0.0
31/02:00pm 19.0 15.4 0.4 28 8.2 NW 9 19 5 10 1018.3 - 0.0
31/01:30pm 19.6 16.5 1.5 30 8.2 N 7 13 4 7 1018.6 - 0.0
31/01:00pm 18.6 15.3 2.5 34 7.4 WSW 9 19 5 10 1019.1 - 0.0
31/12:30pm 18.2 15.0 2.8 35 7.1 NW 9 19 5 10 1019.6 - 0.0
31/12:00pm 17.8 14.4 2.1 35 7.1 NW 9 17 5 9 1020.0 1020.1 0.0
31/11:30am 17.8 15.0 3.4 38 6.7 WNW 7 13 4 7 1020.3 - 0.0
31/11:00am 17.0 14.0 2.1 36 6.7 NW 7 15 4 8 1020.8 - 0.0
31/10:30am 16.9 14.0 2.5 38 6.5 NW 7 11 4 6 1021.0 - 0.0
31/10:00am 16.1 12.8 2.2 39 6.2 NNW 9 15 5 8 1021.1 - 0.0
31/09:30am 14.7 11.2 1.0 39 5.9 NNE 9 13 5 7 1021.3 - 0.0
31/09:00am 14.0 10.9 1.2 41 5.5 NE 7 15 4 8 1021.3 1021.4 0.0
31/08:30am 11.8 9.9 2.6 53 4.0 N 2 7 1 4 1021.2 - 0.0
31/08:00am 7.6 6.0 2.6 70 2.1 CALM 0 0 0 0 1021.2 - 0.0
31/07:30am 4.8 3.2 2.3 84 1.0 CALM 0 0 0 0 1021.2 - 0.0
31/07:00am 4.1 2.5 2.3 88 0.7 CALM 0 0 0 0 1021.0 - 0.0
31/06:30am 4.5 2.8 2.0 84 1.0 CALM 0 0 0 0 1020.9 - 0.0
31/06:00am 4.4 2.8 2.4 87 0.8 CALM 0 0 0 0 1020.9 1021.0 0.0
31/05:30am 4.7 3.1 2.2 84 1.0 CALM 0 0 0 0 1021.0 - 0.0
31/05:00am 4.8 3.2 2.3 84 1.0 CALM 0 0 0 0 1020.9 - 0.0
31/04:30am 5.1 3.5 2.4 83 1.1 CALM 0 0 0 0 1020.9 - 0.0
31/04:00am 5.2 3.6 2.5 83 1.1 CALM 0 0 0 0 1020.9 - 0.0
31/03:30am 5.4 3.8 2.7 83 1.1 CALM 0 0 0 0 1021.0 - 0.0
31/03:00am 5.6 4.1 2.9 83 1.1 CALM 0 0 0 0 1021.2 1021.3 0.0
31/02:30am 5.7 4.3 3.3 84 1.0 CALM 0 0 0 0 1021.5 - 0.0
31/02:00am 6.3 4.8 3.2 80 1.3 CALM 0 0 0 0 1021.8 - 0.0
31/01:30am 6.7 4.9 3.4 79 1.4 N 2 6 1 3 1022.0 - 0.0
31/01:00am 6.5 5.1 3.7 82 1.2 CALM 0 0 0 0 1022.4 - 0.0
31/12:30am 6.8 5.4 3.5 79 1.4 CALM 0 6 0 3 1022.5 - 0.0
31/12:00am 7.0 5.6 3.7 79 1.4 CALM 0 0 0 0 1022.3 1022.4 0.0
 
Date/Time
CST
Temp
°C
App
Temp
°C
Dew
Point
Rel
Hum
%
Delta-T
°C
Wind Press
QNH
hPa
Press
MSL
hPa
Rain
since 9 am
mm
Dir
 
Spd
km/h
Gust
km/h
Spd
kts
Gust
kts
30/11:30pm 7.3 5.9 3.8 78 1.5 CALM 0 0 0 0 1022.2 - 0.0
30/11:00pm 7.5 6.2 4.3 80 1.4 CALM 0 0 0 0 1022.4 - 0.0
30/10:30pm 7.8 6.6 4.6 80 1.4 CALM 0 0 0 0 1022.9 - 0.0
30/10:00pm 8.3 7.0 4.2 75 1.8 CALM 0 0 0 0 1023.1 - 0.0
30/09:30pm 8.7 7.5 4.6 75 1.8 CALM 0 0 0 0 1023.2 - 0.0
30/09:00pm 9.1 7.9 4.6 73 2.0 CALM 0 0 0 0 1023.3 1023.4 0.0
30/08:30pm 9.3 8.0 4.3 71 2.2 CALM 0 0 0 0 1023.5 - 0.0
30/08:00pm 9.6 8.4 4.7 71 2.2 CALM 0 0 0 0 1023.3 - 0.0
30/07:30pm 10.4 9.2 4.8 68 2.5 CALM 0 0 0 0 1023.2 - 0.0
30/07:00pm 11.3 9.5 3.3 58 3.5 SSE 2 7 1 4 1023.2 - 0.0
30/06:30pm 12.2 10.1 3.9 57 3.7 S 4 7 2 4 1023.2 - 0.0
30/06:00pm 12.8 10.2 3.1 51 4.3 S 6 9 3 5 1023.0 1023.1 0.0
30/05:30pm 13.8 10.9 2.7 47 4.9 SSW 7 13 4 7 1023.0 - 0.0
30/05:00pm 14.9 11.2 2.5 43 5.5 SW 11 17 6 9 1022.8 - 0.0
30/04:30pm 15.1 10.6 1.9 41 5.8 WSW 15 20 8 11 1022.7 - 0.0
30/04:00pm 15.8 12.1 2.4 40 6.0 SW 11 17 6 9 1022.6 - 0.0
30/03:30pm 16.1 12.0 2.2 39 6.2 WSW 13 17 7 9 1022.7 - 0.0
30/03:00pm 16.5 14.2 2.5 39 6.3 SW 4 11 2 6 1022.9 1023.0 0.0
30/02:30pm 16.1 13.9 3.1 41 5.9 S 4 11 2 6 1023.1 - 0.0
30/02:00pm 16.1 12.4 2.5 40 6.1 SW 11 20 6 11 1023.4 - 0.0
30/01:30pm 16.6 14.6 2.3 38 6.4 SSE 2 9 1 5 1023.9 - 0.0
30/01:00pm 15.1 12.0 1.6 40 5.9 N 7 15 4 8 1024.3 - 0.0
30/12:30pm 16.6 13.6 1.7 36 6.6 SW 7 13 4 7 1024.8 - 0.0
30/12:00pm 14.7 11.5 0.6 38 6.0 NW 7 17 4 9 1025.3 1025.4 0.0
30/11:30am 15.5 12.4 1.5 38 6.1 N 7 17 4 9 1025.6 - 0.0
30/11:00am 14.4 10.9 1.1 40 5.7 N 9 17 5 9 1025.9 - 0.0
30/10:30am 14.4 10.9 1.1 40 5.7 ENE 9 15 5 8 1026.1 - 0.0
30/10:00am 13.9 10.2 -0.1 38 5.8 NE 9 15 5 8 1026.2 - 0.0
30/09:30am 13.6 9.9 0.1 39 5.6 ENE 9 13 5 7 1026.5 - 0.0
30/09:00am 12.7 9.3 -0.3 40 5.3 ENE 7 13 4 7 1026.6 1026.7 0.0
30/08:30am 11.8 8.7 0.0 44 4.8 ENE 6 11 3 6 1026.8 - 0.0
30/08:00am 9.9 6.7 0.5 52 3.8 NE 7 11 4 6 1026.7 - 0.0
30/07:30am 8.4 6.2 0.9 59 3.0 NE 2 7 1 4 1026.6 - 0.0
30/07:00am 6.8 4.7 1.6 69 2.1 ENE 2 7 1 4 1026.5 - 0.0
30/06:30am 7.4 4.3 1.4 66 2.4 ENE 7 11 4 6 1026.3 - 0.0
30/06:00am 7.1 4.7 1.9 69 2.1 ENE 4 7 2 4 1026.0 1026.1 0.0
30/05:30am 7.4 5.7 2.0 68 2.2 CALM 0 6 0 3 1025.8 - 0.0
30/05:00am 8.2 5.7 1.6 63 2.7 ENE 4 7 2 4 1025.8 - 0.0
30/04:30am 8.6 5.1 1.2 59 3.0 E 9 15 5 8 1025.6 - 0.0
30/04:00am 9.0 5.5 1.1 57 3.2 E 9 19 5 10 1025.6 - 0.0
30/03:30am 9.4 5.5 1.1 56 3.4 E 11 22 6 12 1026.0 - 0.0
30/03:00am 9.6 5.6 0.7 54 3.6 E 11 20 6 11 1026.3 1026.4 0.0
30/02:30am 9.7 5.2 -0.1 50 3.9 E 13 20 7 11 1026.4 - 0.0
30/02:00am 9.5 6.4 -0.1 51 3.8 ESE 6 11 3 6 1026.8 - 0.0
30/01:30am 9.1 5.8 0.3 54 3.5 ESE 7 15 4 8 1027.0 - 0.0
30/01:00am 8.8 5.5 0.2 55 3.4 ESE 7 11 4 6 1027.3 - 0.0
30/12:30am 8.9 5.6 0.4 55 3.4 ESE 7 13 4 7 1027.4 - 0.0
30/12:00am 9.1 5.7 -0.6 50 3.8 ESE 7 13 4 7 1027.2 1027.3 0.0
 
Date/Time
CST
Temp
°C
App
Temp
°C
Dew
Point
Rel
Hum
%
Delta-T
°C
Wind Press
QNH
hPa
Press
MSL
hPa
Rain
since 9 am
mm
Dir
 
Spd
km/h
Gust
km/h
Spd
kts
Gust
kts
29/11:30pm 9.1 5.9 0.6 55 3.4 E 7 15 4 8 1027.2 - 0.0
29/11:00pm 9.0 5.6 1.7 60 3.0 E 9 20 5 11 1027.5 - 0.0
29/10:30pm 9.2 6.1 1.4 58 3.2 E 7 13 4 7 1027.7 - 0.0
29/10:00pm 8.9 6.1 1.9 61 2.9 E 6 13 3 7 1027.8 - 0.0
29/09:30pm 9.1 6.1 1.8 60 3.0 ESE 7 13 4 7 1027.7 - 0.0
29/09:00pm 9.3 5.9 2.1 61 3.0 ESE 9 15 5 8 1027.7 1027.8 0.0
29/08:30pm 9.4 6.5 2.5 62 2.9 ESE 7 17 4 9 1027.5 - 0.0
29/08:00pm 9.5 6.6 2.6 62 2.9 ESE 7 17 4 9 1027.3 - 0.0
29/07:30pm 9.6 6.8 3.1 64 2.8 ESE 7 13 4 7 1027.1 - 0.0
29/07:00pm 10.0 7.2 3.0 62 3.0 SE 7 17 4 9 1027.1 - 0.0
29/06:30pm 10.4 7.5 2.7 59 3.3 ESE 7 15 4 8 1027.0 - 0.0
29/06:00pm 10.8 8.6 3.5 60 3.2 ESE 4 9 2 5 1026.7 1026.8 0.0
29/05:30pm 11.4 8.8 3.4 58 3.5 ESE 6 15 3 8 1026.5 - 0.0
29/05:00pm 12.2 9.4 3.1 53 4.0 ESE 7 15 4 8 1026.3 - 0.0
29/04:30pm 12.4 9.3 3.4 54 4.0 ESE 9 20 5 11 1026.3 - 0.0
29/04:00pm 12.8 9.6 3.3 52 4.2 E 9 17 5 9 1026.2 - 0.0
29/03:30pm 13.2 10.3 2.4 48 4.7 ESE 7 15 4 8 1026.2 - 0.0

Other Formats:

Comma delimited format used in spreadsheet applications
http://www.bom.gov.au/fwo/IDS60801/IDS60801.94675.axf

JavaScript Object Notation format (JSON) in row-major order
http://www.bom.gov.au/fwo/IDS60801/IDS60801.94675.json